Regional Weather Roundup
Issued by NWS Little Rock, AR

Home | Current Version | Previous Version | Text Only | Print | Product List | Glossary On
Versions: 1 2 3 4 5 6 7 8 9 10 11 12 13 14 15 16 17 18 19 20 21 22 23 24 25 26 27 28 29 30 31 32 33 34 35 36 37 38 39 40 41 42 43 44 45 46 47 48 49 50
000
ASUS44 KLZK 221505
RWRLZK

WEATHER ROUNDUP FOR ARKANSAS
NATIONAL WEATHER SERVICE LITTLE ROCK AR
900 AM CST SUN JAN 22 2017

NOTE: "FAIR" INDICATES FEW OR NO CLOUDS BELOW 12,000 FEET WITH NO
SIGNIFICANT WEATHER AND/OR OBSTRUCTIONS TO VISIBILITY.

ARZ001-003-010-029-221600-
NORTHWEST ARKANSAS

CITY           SKY/WX    TMP DP  RH WIND       PRES   REMARKS
FAYETTEVILLE   RAIN      49  49 100 NW6       29.39R FOG
FORT SMITH     RAIN      53  49  86 NE6       29.41R FOG
HARRISON       LGT RAIN  51  51 100 N7        29.41R FOG
BENTONVILLE    CLOUDY   N/A N/A N/A N7        29.41R
ROGERS         LGT RAIN  50  50 100 N3        29.41R FOG
SILOAM SPGS    CLOUDY    50  46  87 N10       29.41R
HIGHFILL       RAIN      50  49  96 N10       29.40R FOG
SPRINGDALE     LGT RAIN  50  50 100 NE3       29.41R FOG
$$

ARZ004-005-016-221600-
NORTH CENTRAL ARKANSAS

CITY           SKY/WX    TMP DP  RH WIND       PRES   REMARKS
BATESVILLE     CLOUDY    54  52  94 N3        29.42R VSB 1/4
FLIPPIN        CLOUDY    54  48  82 N6        29.39R
MTN HOME       CLOUDY    53  52  96 NE7       29.40R
$$

ARZ040-041-221600-
WEST CENTRAL ARKANSAS

CITY           SKY/WX    TMP DP  RH WIND       PRES   REMARKS
MENA           CLOUDY    54  52  94 W5        29.39R
MOUNT IDA      LGT RAIN  53  51  93 CALM      29.34S
$$

ARZ009-017-025-026-028-221600-
NORTHEAST ARKANSAS

CITY           SKY/WX    TMP DP  RH WIND       PRES   REMARKS
CORNING        CLOUDY    55  55 100 N6        29.42S
JONESBORO      CLOUDY    55  53  93 CALM      29.41R
NEWPORT        PTSUNNY   54  54 100 NE7       29.41R
WALNUT RIDGE   CLOUDY    54  52  94 CALM      29.41S
BLYTHEVILLE    CLOUDY    57  55  93 E8        29.40S
$$

ARZ022-023-033-042-044-221600-
CENTRAL ARKANSAS

CITY           SKY/WX    TMP DP  RH WIND       PRES   REMARKS
LITTLE ROCK    LGT RAIN  54  54 100 SW5       29.38S
N LITTLE ROCK    N/A     54  52  95 CALM      29.38S
JACKSONVILLE   DRIZZLE   56  55  99 SW3       29.37R
SEARCY         CLOUDY    54  54 100 NE7       29.40S
HOT SPRINGS    LGT RAIN  54  53  97 CALM      29.36S
RUSSELLVILLE   HVY RAIN  53  51  93 NW9       29.36S FOG
CLINTON        LGT RAIN  52  52 100 CALM      29.39S
$$

ARZ036-221600-
EAST ARKANSAS

CITY           SKY/WX    TMP DP  RH WIND       PRES   REMARKS
WEST MEMPHIS   CLOUDY    55  55 100 S8        29.40R
$$

ARZ050-053-066-070-073-221600-
SOUTHWEST ARKANSAS

CITY           SKY/WX    TMP DP  RH WIND       PRES   REMARKS
ARKADELPHIA    PTSUNNY   53  52  96 CALM      29.38R
CAMDEN         CLOUDY    55  52  88 S6        29.38S
TEXARKANA      PTSUNNY   53  48  83 SW8       29.40R
EL DORADO        N/A    N/A N/A N/A MISG      29.39S
DE QUEEN       MOSUNNY   51  51 100 CALM      29.38R
$$

ARZ056-057-069-221600-
SOUTHEAST ARKANSAS

CITY           SKY/WX    TMP DP  RH WIND       PRES   REMARKS
PINE BLUFF     PTSUNNY   55  53  93 S7        29.38S
STUTTGART      CLOUDY    55  48  76 S15       29.38S
MONTICELLO     CLOUDY    55  51  86 S10G17    29.39R

$$





USA.gov is the U.S. government's official web portal to all federal, state and local government web resources and services.